Printer-friendly version

IAU Minor Planet Center

Minor Planet Center

MPEC 2007-F51 : 2007 FM3

The following Minor Planet Electronic Circular may be linked-to from your own Web pages, but must not otherwise be redistributed electronically.


Read MPEC 2007-F50 Read MPEC 2007-F52


M.P.E.C. 2007-F51                                Issued 2007 Mar. 21, 12:06 UT

     The Minor Planet Electronic Circulars contain information on unusual
         minor planets and routine data on comets.  They are published
   on behalf of Commission 20 of the International Astronomical Union by the
          Minor Planet Center, Smithsonian Astrophysical Observatory,
                          Cambridge, MA 02138, U.S.A.

             Prepared using the Tamkin Foundation Computer Network

                              MPC@CFA.HARVARD.EDU
          URL http://cfa-www.harvard.edu/iau/mpc.html  ISSN 1523-6714

                                   2007 FM3

Observations:
     K07F03M* C2007 03 19.42831 16 35 56.29 +42 45 46.4          18.9 V EF051703
     K07F03M  C2007 03 19.43426 16 35 55.71 +42 45 45.8          19.0 V EF051703
     K07F03M  C2007 03 19.44021 16 35 55.10 +42 45 44.7          19.2 V EF051703
     K07F03M  C2007 03 19.44612 16 35 54.45 +42 45 44.2          19.0 V EF051703
     K07F03M  C2007 03 19.48042 16 35 51.10 +42 45 37.6          19.2 V EF051703
     K07F03M  C2007 03 19.48668 16 35 50.46 +42 45 37.2          19.2 V EF051703
     K07F03M  C2007 03 19.49289 16 35 49.84 +42 45 35.8          19.1 V EF051703
     K07F03M  C2007 03 19.49912 16 35 49.27 +42 45 34.0          18.9 V EF051703
     K07F03M 5C2007 03 19.51169 16 35 48.03 +42 45 31.6          18.9 R EF051673
     K07F03M 5C2007 03 19.51632 16 35 47.57 +42 45 30.6                 EF051673
     K07F03M 5C2007 03 19.52083 16 35 47.13 +42 45 30.0                 EF051673
     K07F03M 5C2007 03 19.52569 16 35 46.63 +42 45 29.1                 EF051673
     K07F03M  C2007 03 20.38823 16 34 23.40 +42 42 40.1          19.1 R EF051651
     K07F03M  C2007 03 20.38898 16 34 23.34 +42 42 40.2          19.0 V EF051G96
     K07F03M  C2007 03 20.39108 16 34 23.12 +42 42 39.7          19.0 V EF051G96
     K07F03M  C2007 03 20.39317 16 34 22.90 +42 42 39.4          19.0 V EF051G96
     K07F03M  C2007 03 20.39359 16 34 22.93 +42 42 38.9          19.1 R EF051651
     K07F03M  C2007 03 20.39530 16 34 22.69 +42 42 39.1          19.0 V EF051G96
     K07F03M  C2007 03 20.39538 16 34 22.69 +42 42 39.0          19.1 R EF051651
     K07F03M  C2007 03 21.27368 16 32 53.87 +42 39 29.9          19.0 V EF051G96
     K07F03M  C2007 03 21.27421 16 32 53.81 +42 39 29.8          19.0 V EF051G96
     K07F03M  C2007 03 21.27475 16 32 53.75 +42 39 29.8          19.1 V EF051G96
     K07F03M  C2007 03 21.27528 16 32 53.70 +42 39 29.8          19.0 V EF051G96
     K07F03M  C2007 03 21.36074 16 32 44.55 +42 39 14.1                 EF051703
     K07F03M  C2007 03 21.36516 16 32 44.17 +42 39 13.5                 EF051703
     K07F03M  C2007 03 21.36779 16 32 43.86 +42 39 12.5          18.8 V EF051703
     K07F03M  C2007 03 21.36932 16 32 43.77 +42 39 11.8          18.9 V EF051703
     K07F03M  C2007 03 21.38500 16 32 41.73 +42 39 09.3          19.3 R EF051850
     K07F03M  C2007 03 21.41253 16 32 38.74 +42 39 03.4          19.2 R EF051850

Observer details:
651 Grasslands Observatory, Tucson.  Observer J. E. McGaha.  0.62-m f/5.1
    Newtonian reflector + CCD.
673 Table Mountain Observatory, Wrightwood.  Observer J. Young.  0.61-m f/16
    Cassegrain + CCD.
703 Catalina Sky Survey.  Observers R. A. Kowalski, R. E. Hill.  Measurers
    E. C. Beshore, E. J. Christensen, G. J. Garradd, A. R. Gibbs, A. D. Grauer,
    R. E. Hill, R. A. Kowalski, S. M. Larson, R. H. McNaught.  0.68-m Schmidt
    + CCD.
850 Cordell-Lorenz Observatory, Sewanee.  Observer D. T. Durig.  0.30-m f/3.3
    Schmidt-Cassegrain + 765x510 CCD.
G96 Mt. Lemmon Survey.  Observer A. R. Gibbs.  Measurers E. C. Beshore,
    E. J. Christensen, G. J. Garradd, A. R. Gibbs, A. D. Grauer, R. E. Hill,
    R. A. Kowalski, S. M. Larson, R. H. McNaught.  1.5-m reflector + CCD.

Orbital elements:
2007 FM3                                                 Earth MOID = 0.5526 AU
Epoch 2007 Apr. 10.0 TT = JDT 2454200.5                 MPC
M  30.42442              (2000.0)            P               Q
n   0.31832943     Peri.   74.00281     -0.46143638     -0.69464009
a   2.1243114      Node    57.27735     +0.32175136     -0.71072622
e   0.3892388      Incl.   40.99291     +0.82677236     -0.11110081
P   3.10           H   17.1           G   0.15           U   8
Residuals in seconds of arc
070319 703  0.2+  0.4+    070319 673  0.2-  0.7+    070321 G96  0.1+  0.2+
070319 703  0.3+  0.8+    070319 673  0.4-  0.7+    070321 G96  0.0   0.3+
070319 703  0.1+  0.7+    070320 651  0.3-  0.1+    070321 G96  0.1+  0.4+
070319 703  0.6-  1.2+    070320 G96  0.1-  0.4+    070321 703  1.1-  0.7+
070319 703  0.1+  0.6+    070320 G96  0.1-  0.3+    070321 703  0.0   0.9+
070319 703  0.1-  1.3+    070320 G96  0.2-  0.4+    070321 703  0.3-  0.4+
070319 703  0.1-  1.0+    070320 651  0.6+  0.2-    070321 703  0.5+  0.0
070319 703  0.5+  0.3+    070320 G96  0.1-  0.5+    070321 850  0.0   0.2-
070319 673  0.4-  0.6+    070320 651  0.0   0.2+    070321 850  0.1+  0.2-
070319 673  0.4-  0.5+    070321 G96  0.1+  0.2+

Ephemeris:
2007 FM3                 a,e,i = 2.12, 0.39, 41                  q = 1.2974
Date    TT    R. A. (2000) Decl.     Delta      r     Elong.  Phase     V
2007 03 21    16 33.36   +42 40.5    0.845    1.470   105.7    40.7    19.2
2007 03 31    16 12.26   +41 42.6    0.809    1.512   113.1    37.4    19.0
2007 04 10    15 44.01   +39 37.9    0.781    1.557   121.1    33.4    18.9
2007 04 20    15 11.66   +35 58.0    0.768    1.603   128.9    29.2    18.8
2007 04 30    14 40.06   +30 36.9    0.779    1.651   134.7    25.7    18.8
2007 05 10    14 13.41   +24 04.9    0.818    1.700   136.6    24.1    18.9
2007 05 20    13 53.69   +17 10.8    0.888    1.749   134.0    24.6    19.2
2007 05 30    13 40.93   +10 36.1    0.985    1.799   128.3    26.2    19.5
2007 06 09    13 34.10   +04 42.2    1.106    1.849   121.3    28.0    19.9
2007 06 19    13 32.02   -00 26.8    1.244    1.899   113.9    29.3    20.2
2007 06 29    13 33.68   -04 55.1    1.396    1.948   106.6    30.0    20.6
2007 07 09    13 38.23   -08 49.5    1.557    1.996    99.6    30.1    20.9
2007 07 19    13 45.09   -12 16.9    1.723    2.044    92.9    29.8    21.1
2007 07 29    13 53.83   -15 22.9    1.892    2.091    86.4    29.0    21.4
2007 08 08    14 04.09   -18 11.8    2.062    2.138    80.2    27.9    21.6
2007 08 18    14 15.67   -20 46.8    2.230    2.183    74.1    26.5    21.7
2007 08 28    14 28.41   -23 10.5    2.394    2.227    68.2    24.9    21.9
2007 09 07    14 42.16   -25 24.2    2.553    2.270    62.4    23.2    22.0

Timothy B. Spahr             (C) Copyright 2007 MPC           M.P.E.C. 2007-F51

Read MPEC 2007-F50 Read MPEC 2007-F52


Our Web policy. Index to the CBAT/MPC/ICQ pages.


Valid HTML 4.01!